TimeCDT,TemperatureF,Dew PointF,Humidity,Sea Level PressureIn,VisibilityMPH,Wind Direction,Wind SpeedMPH,Gust SpeedMPH,PrecipitationIn,Events,Conditions,WindDirDegrees,DateUTC
12:15 AM,53.1,41.9,66,29.73,10.0,South,5.8,-,N/A,,Clear,180,2012-10-16 05:15:00
12:35 AM,54.3,42.3,64,29.72,10.0,South,8.1,-,N/A,,Clear,170,2012-10-16 05:35:00
12:55 AM,55.8,42.8,62,29.71,10.0,South,8.1,-,N/A,,Clear,190,2012-10-16 05:55:00
1:15 AM,57.0,43.0,59,29.70,10.0,South,9.2,-,N/A,,Clear,180,2012-10-16 06:15:00
1:35 AM,57.2,43.3,60,29.69,10.0,South,10.4,16.1,N/A,,Clear,180,2012-10-16 06:35:00
1:55 AM,56.8,43.9,62,29.68,10.0,South,9.2,-,N/A,,Clear,180,2012-10-16 06:55:00
2:15 AM,56.5,44.2,64,29.67,10.0,South,8.1,-,N/A,,Clear,180,2012-10-16 07:15:00
2:35 AM,56.1,44.6,65,29.66,10.0,South,9.2,-,N/A,,Clear,170,2012-10-16 07:35:00
2:55 AM,54.7,44.6,69,29.65,10.0,South,6.9,-,N/A,,Clear,170,2012-10-16 07:55:00
3:15 AM,53.6,45.1,73,29.64,10.0,South,6.9,-,N/A,,Clear,170,2012-10-16 08:15:00
3:35 AM,52.7,45.7,77,29.63,10.0,SSE,4.6,-,N/A,,Clear,160,2012-10-16 08:35:00
3:55 AM,52.5,45.9,78,29.62,10.0,SSE,4.6,-,N/A,,Clear,160,2012-10-16 08:55:00
4:15 AM,52.3,46.4,80,29.61,10.0,SSE,5.8,-,N/A,,Clear,160,2012-10-16 09:15:00
4:35 AM,52.5,46.4,80,29.60,10.0,SSE,5.8,-,N/A,,Clear,160,2012-10-16 09:35:00
4:55 AM,52.5,46.6,80,29.59,10.0,SSE,5.8,-,N/A,,Clear,160,2012-10-16 09:55:00
5:15 AM,51.8,46.4,82,29.58,10.0,South,5.8,-,N/A,,Clear,170,2012-10-16 10:15:00
5:35 AM,52.7,46.8,80,29.57,10.0,South,5.8,-,N/A,,Clear,170,2012-10-16 10:35:00
5:55 AM,51.8,46.4,82,29.56,10.0,SSE,5.8,-,N/A,,Clear,160,2012-10-16 10:55:00
6:35 AM,52.9,46.9,80,29.56,10.0,Calm,Calm,-,N/A,,Clear,0,2012-10-16 11:35:00
7:15 AM,52.7,46.8,80,29.54,10.0,SSE,6.9,-,N/A,,Clear,160,2012-10-16 12:15:00
7:55 AM,50.9,46.4,85,29.55,10.0,Calm,Calm,-,N/A,,Scattered Clouds,0,2012-10-16 12:55:00
8:15 AM,52.5,47.3,82,29.55,10.0,Calm,Calm,-,N/A,,Clear,0,2012-10-16 13:15:00
8:35 AM,54.5,47.8,78,29.55,10.0,South,3.5,-,N/A,,Clear,180,2012-10-16 13:35:00
8:55 AM,55.0,48.2,78,29.55,10.0,SSW,5.8,-,N/A,,Scattered Clouds,210,2012-10-16 13:55:00
9:15 AM,55.8,48.4,76,29.55,10.0,SSW,5.8,-,N/A,,Clear,210,2012-10-16 14:15:00
9:35 AM,58.3,48.7,71,29.54,10.0,SW,5.8,-,N/A,,Clear,230,2012-10-16 14:35:00
9:55 AM,61.3,48.7,63,29.54,10.0,West,6.9,-,N/A,,Clear,260,2012-10-16 14:55:00
10:15 AM,61.0,48.0,62,29.54,10.0,West,9.2,-,N/A,,Clear,270,2012-10-16 15:15:00
10:35 AM,62.4,47.5,58,29.53,10.0,West,6.9,-,N/A,,Clear,280,2012-10-16 15:35:00
10:55 AM,62.8,47.5,57,29.53,10.0,WNW,11.5,-,N/A,,Clear,300,2012-10-16 15:55:00
11:15 AM,64.6,46.6,52,29.53,10.0,NNW,8.1,-,N/A,,Clear,330,2012-10-16 16:15:00
11:35 AM,65.7,45.5,48,29.52,10.0,NNW,6.9,-,N/A,,Clear,330,2012-10-16 16:35:00
11:55 AM,68.0,45.0,43,29.52,10.0,NNW,8.1,-,N/A,,Clear,340,2012-10-16 16:55:00
12:15 PM,69.6,43.5,39,29.52,10.0,NW,10.4,17.3,N/A,,Clear,310,2012-10-16 17:15:00
12:35 PM,71.2,43.2,36,29.51,10.0,NW,6.9,-,N/A,,Clear,310,2012-10-16 17:35:00
12:55 PM,73.0,42.1,33,29.49,10.0,NNW,10.4,16.1,N/A,,Clear,330,2012-10-16 17:55:00
1:15 PM,74.1,42.1,32,29.48,10.0,WNW,9.2,-,N/A,,Clear,300,2012-10-16 18:15:00
1:35 PM,74.1,41.0,30,29.48,10.0,WNW,10.4,-,N/A,,Clear,300,2012-10-16 18:35:00
1:55 PM,75.0,40.8,29,29.47,10.0,NW,9.2,21.9,N/A,,Clear,320,2012-10-16 18:55:00
2:15 PM,76.8,41.0,28,29.46,10.0,WNW,11.5,17.3,N/A,,Clear,300,2012-10-16 19:15:00
2:35 PM,76.8,40.3,27,29.45,10.0,NW,10.4,-,N/A,,Clear,310,2012-10-16 19:35:00
2:55 PM,77.0,39.7,26,29.44,10.0,NW,9.2,16.1,N/A,,Clear,310,2012-10-16 19:55:00
3:15 PM,77.0,39.2,26,29.44,10.0,WNW,11.5,16.1,N/A,,Clear,300,2012-10-16 20:15:00
3:35 PM,77.4,39.4,26,29.44,10.0,NW,8.1,-,N/A,,Clear,310,2012-10-16 20:35:00
3:55 PM,77.0,40.6,27,29.43,10.0,West,11.5,16.1,N/A,,Clear,260,2012-10-16 20:55:00
4:15 PM,76.8,40.8,27,29.44,10.0,WNW,9.2,17.3,N/A,,Clear,300,2012-10-16 21:15:00
4:35 PM,76.3,40.8,28,29.43,10.0,WNW,9.2,16.1,N/A,,Clear,290,2012-10-16 21:35:00
4:55 PM,75.7,41.2,29,29.42,10.0,West,9.2,-,N/A,,Clear,260,2012-10-16 21:55:00
5:15 PM,75.2,41.5,30,29.42,10.0,WSW,12.7,16.1,N/A,,Clear,250,2012-10-16 22:15:00
5:35 PM,73.9,41.7,31,29.42,10.0,WSW,10.4,-,N/A,,Clear,250,2012-10-16 22:35:00
5:55 PM,72.3,42.1,34,29.43,10.0,West,8.1,-,N/A,,Clear,260,2012-10-16 22:55:00
6:15 PM,70.3,42.1,36,29.43,10.0,West,6.9,-,N/A,,Clear,260,2012-10-16 23:15:00
6:35 PM,66.9,42.1,40,29.43,10.0,WSW,5.8,-,N/A,,Clear,250,2012-10-16 23:35:00
6:55 PM,65.1,42.3,43,29.43,10.0,WSW,5.8,-,N/A,,Clear,250,2012-10-16 23:55:00
7:15 PM,63.0,42.4,47,29.43,10.0,West,3.5,-,N/A,,Clear,260,2012-10-17 00:15:00
7:35 PM,59.7,42.6,53,29.43,10.0,WSW,4.6,-,N/A,,Clear,250,2012-10-17 00:35:00
7:55 PM,61.3,42.6,50,29.43,10.0,Calm,Calm,-,N/A,,Clear,0,2012-10-17 00:55:00
8:15 PM,60.6,42.8,52,29.43,10.0,Calm,Calm,-,N/A,,Clear,0,2012-10-17 01:15:00
8:35 PM,60.4,42.4,51,29.42,10.0,Calm,Calm,-,N/A,,Clear,0,2012-10-17 01:35:00
8:55 PM,57.7,42.3,56,29.41,10.0,SSE,4.6,-,N/A,,Clear,160,2012-10-17 01:55:00
9:15 PM,54.7,41.4,61,29.41,10.0,Calm,Calm,-,N/A,,Clear,0,2012-10-17 02:15:00
9:35 PM,54.9,43.2,65,29.42,10.0,Calm,Calm,-,N/A,,Clear,0,2012-10-17 02:35:00
9:55 PM,55.0,42.3,62,29.41,10.0,Calm,Calm,-,N/A,,Clear,0,2012-10-17 02:55:00
10:15 PM,55.4,42.1,61,29.40,10.0,Calm,Calm,-,N/A,,Clear,0,2012-10-17 03:15:00
10:35 PM,54.0,42.1,64,29.40,10.0,Calm,Calm,-,N/A,,Clear,0,2012-10-17 03:35:00
10:55 PM,52.7,41.7,66,29.40,10.0,Calm,Calm,-,N/A,,Clear,0,2012-10-17 03:55:00
11:15 PM,52.3,43.7,72,29.39,10.0,Calm,Calm,-,N/A,,Clear,0,2012-10-17 04:15:00
11:35 PM,52.0,43.7,73,29.39,10.0,Calm,Calm,-,N/A,,Clear,0,2012-10-17 04:35:00
11:55 PM,53.1,42.6,68,29.38,10.0,Calm,Calm,-,N/A,,Clear,0,2012-10-17 04:55:00